| time (UTC) | temp F | wind direction | speed MPH | gust MPH | rain 1hr in | rain 24hr in | rain mn in | humidity % | barometer mb |
| 20260902083103 | 77 | 183 | 11.0 | 16.0 | 0.00 | 0.00 | 0.00 | 51 | 1015.9 |
| 20260902082548 | 77 | 165 | 11.0 | 16.0 | 0.00 | 0.00 | 0.00 | 51 | 1016.0 |
| 20260902082046 | 77 | 151 | 11.0 | 15.0 | 0.00 | 0.00 | 0.00 | 52 | 1015.9 |
| 20260902081557 | 77 | 159 | 11.0 | 15.0 | 0.00 | 0.00 | 0.00 | 52 | 1015.9 |
| 20260902081046 | 76 | 150 | 10.0 | 13.0 | 0.00 | 0.00 | 0.00 | 53 | 1016.0 |
| 20260902080546 | 76 | 154 | 9.0 | 13.0 | 0.00 | 0.00 | 0.00 | 54 | 1015.9 |
| 20260902075546 | 76 | 162 | 9.0 | 14.0 | 0.00 | 0.00 | 0.00 | 54 | 1015.8 |
| 20260902075046 | 76 | 150 | 9.0 | 12.0 | 0.00 | 0.00 | 0.00 | 55 | 1015.9 |
| 20260902074601 | 76 | 157 | 9.0 | 12.0 | 0.00 | 0.00 | 0.00 | 55 | 1015.8 |
| 20260902074046 | 76 | 166 | 8.0 | 12.0 | 0.00 | 0.00 | 0.00 | 55 | 1015.8 |
| 20260902073549 | 76 | 180 | 8.0 | 11.0 | 0.00 | 0.00 | 0.00 | 55 | 1015.8 |
| 20260902073105 | 76 | 195 | 8.0 | 11.0 | 0.00 | 0.00 | 0.00 | 56 | 1015.9 |
| 20260902072548 | 76 | 155 | 7.0 | 11.0 | 0.00 | 0.00 | 0.00 | 56 | 1015.8 |
| 20260902072051 | 76 | 151 | 7.0 | 11.0 | 0.00 | 0.00 | 0.00 | 56 | 1015.8 |
| 20260902071555 | 76 | 169 | 7.0 | 11.0 | 0.00 | 0.00 | 0.00 | 56 | 1015.8 |
| 20260902071048 | 76 | 153 | 7.0 | 11.0 | 0.00 | 0.00 | 0.00 | 56 | 1015.8 |
| 20260902070547 | 76 | 160 | 7.0 | 11.0 | 0.00 | 0.00 | 0.00 | 56 | 1015.8 |
| 20260902070058 | 76 | 153 | 7.0 | 11.0 | 0.00 | 0.00 | 0.00 | 56 | 1015.8 |
| 20260902065550 | 77 | 154 | 8.0 | 11.0 | 0.00 | 0.00 | 0.00 | 56 | 1015.8 |
| 20260902065051 | 77 | 162 | 7.0 | 10.0 | 0.00 | 0.00 | 0.00 | 56 | 1015.9 |
| 20260902064606 | 77 | 171 | 7.0 | 10.0 | 0.00 | 0.00 | 0.00 | 55 | 1015.8 |
| 20260902064048 | 77 | 154 | 7.0 | 10.0 | 0.00 | 0.00 | 0.00 | 56 | 1015.8 |
| 20260902063550 | 77 | 155 | 7.0 | 10.0 | 0.00 | 0.00 | 0.00 | 56 | 1015.8 |
| 20260902063109 | 77 | 172 | 7.0 | 9.0 | 0.00 | 0.00 | 0.00 | 56 | 1015.8 |
| 20260902062548 | 77 | 160 | 7.0 | 9.0 | 0.00 | 0.00 | 0.00 | 56 | 1015.8 |
| 20260902062047 | 77 | 156 | 6.0 | 9.0 | 0.00 | 0.00 | 0.00 | 56 | 1015.8 |
| 20260902061625 | 77 | 169 | 5.0 | 9.0 | 0.00 | 0.00 | 0.00 | 56 | 1015.8 |
| 20260902061146 | 77 | 149 | 6.0 | 9.0 | 0.00 | 0.00 | 0.00 | 56 | 1015.8 |
| 20260902060547 | 77 | 158 | 6.0 | 9.0 | 0.00 | 0.00 | 0.00 | 56 | 1015.7 |
| 20260902060106 | 77 | 147 | 6.0 | 9.0 | 0.00 | 0.00 | 0.00 | 56 | 1015.8 |
| 20260902055548 | 77 | 158 | 6.0 | 9.0 | 0.00 | 0.00 | 0.00 | 56 | 1015.8 |
| 20260902055048 | 77 | 145 | 5.0 | 7.0 | 0.00 | 0.00 | 0.00 | 56 | 1015.9 |
| 20260902054555 | 77 | 165 | 5.0 | 7.0 | 0.00 | 0.00 | 0.00 | 55 | 1015.9 |
| 20260902054047 | 78 | 139 | 5.0 | 7.0 | 0.00 | 0.00 | 0.00 | 55 | 1015.8 |
| 20260902053548 | 78 | 150 | 5.0 | 8.0 | 0.00 | 0.00 | 0.00 | 54 | 1015.8 |
| 20260902053106 | 79 | 175 | 5.0 | 8.0 | 0.00 | 0.00 | 0.00 | 54 | 1015.8 |
| 20260902052549 | 79 | 203 | 5.0 | 8.0 | 0.00 | 0.00 | 0.00 | 54 | 1016.0 |
| 20260902052048 | 79 | 212 | 6.0 | 8.0 | 0.00 | 0.00 | 0.00 | 54 | 1015.8 |
| 20260902051610 | 79 | 181 | 6.0 | 8.0 | 0.00 | 0.00 | 0.00 | 53 | 1015.8 |
| 20260902051048 | 79 | 179 | 5.0 | 8.0 | 0.00 | 0.00 | 0.00 | 53 | 1015.9 |
| 20260902050548 | 79 | 196 | 5.0 | 8.0 | 0.00 | 0.00 | 0.00 | 53 | 1015.9 |
| 20260902050059 | 79 | 188 | 5.0 | 9.0 | 0.00 | 0.00 | 0.00 | 52 | 1015.9 |
| 20260902045547 | 80 | 186 | 5.0 | 9.0 | 0.00 | 0.00 | 0.00 | 52 | 1016.0 |
| 20260902045048 | 80 | 198 | 5.0 | 9.0 | 0.00 | 0.00 | 0.00 | 51 | 1016.0 |
| 20260902044636 | 80 | 195 | 5.0 | 9.0 | 0.00 | 0.00 | 0.00 | 51 | 1015.8 |
| 20260902044049 | 80 | 174 | 6.0 | 11.0 | 0.00 | 0.00 | 0.00 | 51 | 1015.7 |
| 20260902043547 | 80 | 180 | 7.0 | 11.0 | 0.00 | 0.00 | 0.00 | 50 | 1015.7 |
| 20260902043106 | 81 | 172 | 6.0 | 12.0 | 0.00 | 0.00 | 0.00 | 50 | 1015.6 |
| 20260902042548 | 81 | 165 | 7.0 | 12.0 | 0.00 | 0.00 | 0.00 | 49 | 1015.7 |
| 20260902042049 | 81 | 175 | 8.0 | 12.0 | 0.00 | 0.00 | 0.00 | 49 | 1015.6 |
| 20260902041605 | 81 | 179 | 8.0 | 12.0 | 0.00 | 0.00 | 0.00 | 49 | 1015.6 |
| 20260902041047 | 81 | 170 | 8.0 | 10.0 | 0.00 | 0.00 | 0.00 | 49 | 1015.7 |
| 20260902040548 | 81 | 195 | 6.0 | 10.0 | 0.00 | 0.00 | 0.00 | 48 | 1015.6 |
| 20260902040058 | 82 | 178 | 6.0 | 9.0 | 0.00 | 0.00 | 0.00 | 47 | 1015.6 |
| 20260902035548 | 82 | 175 | 5.0 | 9.0 | 0.00 | 0.00 | 0.00 | 47 | 1015.6 |
| 20260902035048 | 82 | 195 | 5.0 | 9.0 | 0.00 | 0.00 | 0.00 | 46 | 1015.4 |
| 20260902034603 | 83 | 182 | 6.0 | 13.0 | 0.00 | 0.00 | 0.00 | 46 | 1015.4 |
| 20260902034048 | 83 | 197 | 5.0 | 13.0 | 0.00 | 0.00 | 0.00 | 45 | 1015.4 |
| 20260902033548 | 84 | 195 | 5.0 | 10.0 | 0.00 | 0.00 | 0.00 | 45 | 1015.5 |
| 20260902033059 | 84 | 215 | 6.0 | 10.0 | 0.00 | 0.00 | 0.00 | 45 | 1015.5 |
| 20260902032550 | 84 | 226 | 7.0 | 10.0 | 0.00 | 0.00 | 0.00 | 45 | 1015.4 |
| 20260902032048 | 84 | 214 | 4.0 | 11.0 | 0.00 | 0.00 | 0.00 | 44 | 1015.4 |
| 20260902031606 | 84 | 235 | 6.0 | 11.0 | 0.00 | 0.00 | 0.00 | 44 | 1015.5 |
| 20260902031048 | 84 | 238 | 7.0 | 10.0 | 0.00 | 0.00 | 0.00 | 44 | 1015.6 |
| 20260902030548 | 83 | 176 | 3.0 | 9.0 | 0.00 | 0.00 | 0.00 | 45 | 1015.5 |
| 20260902030108 | 83 | 251 | 4.0 | 6.0 | 0.00 | 0.00 | 0.00 | 46 | 1015.4 |
| 20260902025549 | 83 | 239 | 3.0 | 6.0 | 0.00 | 0.00 | 0.00 | 46 | 1015.6 |
| 20260902025048 | 82 | 222 | 2.0 | 4.0 | 0.00 | 0.00 | 0.00 | 46 | 1015.7 |
| 20260902024605 | 82 | 0 | 2.0 | 3.0 | 0.00 | 0.00 | 0.00 | 46 | 1015.5 |
| 20260902024047 | 82 | 238 | 0.0 | 6.0 | 0.00 | 0.00 | 0.00 | 45 | 1015.4 |
| 20260902023547 | 82 | 239 | 0.0 | 6.0 | 0.00 | 0.00 | 0.00 | 45 | 1015.4 |
| 20260902023106 | 83 | 281 | 3.0 | 6.0 | 0.00 | 0.00 | 0.00 | 45 | 1015.3 |
| 20260902022548 | 83 | 211 | 3.0 | 7.0 | 0.00 | 0.00 | 0.00 | 44 | 1015.1 |
| 20260902022047 | 83 | 145 | 4.0 | 7.0 | 0.00 | 0.00 | 0.00 | 44 | 1014.9 |
| 20260902021605 | 82 | 149 | 5.0 | 7.0 | 0.00 | 0.00 | 0.00 | 45 | 1014.8 |
| 20260902021048 | 81 | 166 | 5.0 | 7.0 | 0.00 | 0.00 | 0.00 | 46 | 1014.7 |
| 20260902020550 | 81 | 142 | 4.0 | 5.0 | 0.00 | 0.00 | 0.00 | 46 | 1014.6 |
| 20260902020108 | 81 | 150 | 3.0 | 5.0 | 0.00 | 0.00 | 0.00 | 45 | 1014.5 |
| 20260902015549 | 82 | 139 | 4.0 | 5.0 | 0.00 | 0.00 | 0.00 | 45 | 1014.4 |
| 20260902015047 | 82 | 147 | 4.0 | 5.0 | 0.00 | 0.00 | 0.00 | 44 | 1014.4 |
| 20260902014600 | 83 | 141 | 3.0 | 4.0 | 0.00 | 0.00 | 0.00 | 43 | 1014.3 |
| 20260902014049 | 83 | 139 | 3.0 | 4.0 | 0.00 | 0.00 | 0.00 | 41 | 1014.2 |
| 20260902013548 | 84 | 146 | 4.0 | 5.0 | 0.00 | 0.00 | 0.00 | 40 | 1014.2 |
| 20260902013110 | 85 | 153 | 3.0 | 5.0 | 0.00 | 0.00 | 0.00 | 39 | 1014.2 |
| 20260902012547 | 86 | 151 | 3.0 | 5.0 | 0.00 | 0.00 | 0.00 | 38 | 1014.2 |
| 20260902012049 | 87 | 143 | 4.0 | 5.0 | 0.00 | 0.00 | 0.00 | 36 | 1014.2 |
| 20260902011557 | 88 | 125 | 3.0 | 5.0 | 0.00 | 0.00 | 0.00 | 36 | 1014.2 |
| 20260902011053 | 88 | 165 | 3.0 | 5.0 | 0.00 | 0.00 | 0.00 | 35 | 1014.2 |
| 20260902010547 | 89 | 173 | 3.0 | 5.0 | 0.00 | 0.00 | 0.00 | 34 | 1014.1 |
| 20260902010105 | 90 | 178 | 3.0 | 6.0 | 0.00 | 0.00 | 0.00 | 33 | 1014.1 |
| 20260902005548 | 91 | 167 | 4.0 | 7.0 | 0.00 | 0.00 | 0.00 | 33 | 1014.2 |
| 20260902005046 | 91 | 166 | 4.0 | 7.0 | 0.00 | 0.00 | 0.00 | 32 | 1014.2 |
| 20260902004603 | 91 | 155 | 5.0 | 7.0 | 0.00 | 0.00 | 0.00 | 32 | 1014.2 |
| 20260902004047 | 92 | 169 | 4.0 | 7.0 | 0.00 | 0.00 | 0.00 | 31 | 1014.2 |
| 20260902003546 | 92 | 147 | 5.0 | 8.0 | 0.00 | 0.00 | 0.00 | 30 | 1014.2 |
| 20260902003103 | 93 | 162 | 4.0 | 11.0 | 0.00 | 0.00 | 0.00 | 30 | 1014.2 |
| 20260902002546 | 93 | 153 | 5.0 | 11.0 | 0.00 | 0.00 | 0.00 | 29 | 1014.2 |
| 20260902002049 | 94 | 158 | 8.0 | 11.0 | 0.00 | 0.00 | 0.00 | 29 | 1014.1 |
| 20260902001606 | 94 | 205 | 8.0 | 11.0 | 0.00 | 0.00 | 0.00 | 29 | 1014.2 |
| 20260902001045 | 94 | 174 | 6.0 | 15.0 | 0.00 | 0.00 | 0.00 | 28 | 1014.2 |
| 20260902000548 | 95 | 173 | 9.0 | 15.0 | 0.00 | 0.00 | 0.00 | 28 | 1014.1 |
| 20260902000104 | 95 | 134 | 9.0 | 13.0 | 0.00 | 0.00 | 0.00 | 27 | 1014.1 |
| 20260901235546 | 95 | 179 | 7.0 | 12.0 | 0.00 | 0.00 | 0.00 | 27 | 1014.2 |
| 20260901235048 | 96 | 187 | 6.0 | 14.0 | 0.00 | 0.00 | 0.00 | 27 | 1014.0 |
| 20260901234609 | 96 | 201 | 7.0 | 15.0 | 0.00 | 0.00 | 0.00 | 26 | 1014.0 |
| 20260901234046 | 97 | 209 | 11.0 | 16.0 | 0.00 | 0.00 | 0.00 | 26 | 1014.2 |
| 20260901233546 | 98 | 168 | 10.0 | 16.0 | 0.00 | 0.00 | 0.00 | 26 | 1014.0 |
| 20260901233107 | 98 | 137 | 10.0 | 16.0 | 0.00 | 0.00 | 0.00 | 26 | 1014.1 |
| 20260901232546 | 98 | 174 | 7.0 | 17.0 | 0.00 | 0.00 | 0.00 | 26 | 1014.1 |
| 20260901232052 | 98 | 161 | 11.0 | 19.0 | 0.00 | 0.00 | 0.00 | 26 | 1014.0 |
| 20260901231616 | 98 | 167 | 14.0 | 19.0 | 0.00 | 0.00 | 0.00 | 25 | 1014.0 |
| 20260901231046 | 98 | 139 | 10.0 | 17.0 | 0.00 | 0.00 | 0.00 | 26 | 1014.0 |
| 20260901230549 | 97 | 171 | 12.0 | 16.0 | 0.00 | 0.00 | 0.00 | 27 | 1014.0 |
| 20260901230111 | 97 | 155 | 8.0 | 16.0 | 0.00 | 0.00 | 0.00 | 27 | 1014.1 |
| 20260901225546 | 98 | 157 | 8.0 | 16.0 | 0.00 | 0.00 | 0.00 | 27 | 1014.2 |
| 20260901225046 | 98 | 156 | 11.0 | 17.0 | 0.00 | 0.00 | 0.00 | 26 | 1014.2 |
| 20260901224604 | 98 | 206 | 12.0 | 17.0 | 0.00 | 0.00 | 0.00 | 26 | 1014.2 |
| 20260901224046 | 98 | 148 | 12.0 | 16.0 | 0.00 | 0.00 | 0.00 | 27 | 1014.0 |
| 20260901223549 | 98 | 155 | 7.0 | 15.0 | 0.00 | 0.00 | 0.00 | 27 | 1014.1 |
| 20260901223104 | 98 | 142 | 9.0 | 24.0 | 0.00 | 0.00 | 0.00 | 27 | 1014.2 |
| 20260901222545 | 98 | 166 | 12.0 | 24.0 | 0.00 | 0.00 | 0.00 | 27 | 1014.2 |
| 20260901222047 | 98 | 197 | 13.0 | 23.0 | 0.00 | 0.00 | 0.00 | 27 | 1014.2 |
| 20260901221613 | 99 | 172 | 14.0 | 23.0 | 0.00 | 0.00 | 0.00 | 27 | 1014.2 |
| 20260901221049 | 98 | 159 | 10.0 | 17.0 | 0.00 | 0.00 | 0.00 | 26 | 1014.3 |
| 20260901220550 | 98 | 204 | 10.0 | 20.0 | 0.00 | 0.00 | 0.00 | 27 | 1014.3 |
| 20260901220107 | 98 | 158 | 15.0 | 20.0 | 0.00 | 0.00 | 0.00 | 27 | 1014.4 |
| 20260901215548 | 98 | 146 | 12.0 | 20.0 | 0.00 | 0.00 | 0.00 | 26 | 1014.3 |
| 20260901215048 | 98 | 179 | 10.0 | 20.0 | 0.00 | 0.00 | 0.00 | 26 | 1014.3 |
| 20260901214607 | 97 | 185 | 11.0 | 20.0 | 0.00 | 0.00 | 0.00 | 27 | 1014.4 |
| 20260901214048 | 96 | 165 | 6.0 | 21.0 | 0.00 | 0.00 | 0.00 | 27 | 1014.4 |
| 20260901213548 | 97 | 222 | 7.0 | 22.0 | 0.00 | 0.00 | 0.00 | 26 | 1014.6 |
| 20260901213058 | 98 | 158 | 16.0 | 22.0 | 0.00 | 0.00 | 0.00 | 25 | 1014.7 |
| 20260901212548 | 98 | 168 | 9.0 | 22.0 | 0.00 | 0.00 | 0.00 | 26 | 1014.7 |
| 20260901212048 | 98 | 153 | 5.0 | 12.0 | 0.00 | 0.00 | 0.00 | 26 | 1014.7 |
| 20260901211603 | 97 | 224 | 7.0 | 16.0 | 0.00 | 0.00 | 0.00 | 26 | 1014.8 |
| 20260901211048 | 98 | 189 | 10.0 | 16.0 | 0.00 | 0.00 | 0.00 | 26 | 1014.9 |
| 20260901210551 | 98 | 234 | 8.0 | 17.0 | 0.00 | 0.00 | 0.00 | 25 | 1014.9 |
| 20260901210105 | 98 | 238 | 10.0 | 18.0 | 0.00 | 0.00 | 0.00 | 26 | 1015.0 |
| 20260901205548 | 98 | 199 | 13.0 | 22.0 | 0.00 | 0.00 | 0.00 | 26 | 1015.2 |
| 20260901205050 | 97 | 200 | 12.0 | 25.0 | 0.00 | 0.00 | 0.00 | 26 | 1015.2 |
| 20260901204558 | 98 | 165 | 11.0 | 25.0 | 0.00 | 0.00 | 0.00 | 25 | 1015.3 |
| 20260901204048 | 98 | 202 | 13.0 | 21.0 | 0.00 | 0.00 | 0.00 | 25 | 1015.4 |
| 20260901203548 | 98 | 191 | 11.0 | 18.0 | 0.00 | 0.00 | 0.00 | 25 | 1015.4 |
| 20260901203104 | 98 | 186 | 12.0 | 21.0 | 0.00 | 0.00 | 0.00 | 25 | 1015.6 |
| 20260901202548 | 98 | 161 | 12.0 | 21.0 | 0.00 | 0.00 | 0.00 | 26 | 1015.8 |
| 20260901202051 | 98 | 156 | 9.0 | 18.0 | 0.00 | 0.00 | 0.00 | 26 | 1015.8 |
| 20260901201602 | 97 | 226 | 9.0 | 18.0 | 0.00 | 0.00 | 0.00 | 26 | 1015.8 |
| 20260901201048 | 97 | 120 | 7.0 | 14.0 | 0.00 | 0.00 | 0.00 | 27 | 1015.9 |
| 20260901200548 | 97 | 157 | 7.0 | 18.0 | 0.00 | 0.00 | 0.00 | 29 | 1016.1 |
| 20260901195548 | 96 | 217 | 15.0 | 20.0 | 0.00 | 0.00 | 0.00 | 29 | 1016.2 |
| 20260901195048 | 96 | 207 | 7.0 | 19.0 | 0.00 | 0.00 | 0.00 | 29 | 1016.2 |
| 20260901194606 | 96 | 259 | 9.0 | 21.0 | 0.00 | 0.00 | 0.00 | 29 | 1016.2 |
| 20260901194048 | 97 | 130 | 10.0 | 21.0 | 0.00 | 0.00 | 0.00 | 28 | 1016.2 |
| 20260901193550 | 97 | 181 | 11.0 | 20.0 | 0.00 | 0.00 | 0.00 | 29 | 1016.4 |
| 20260901193059 | 96 | 220 | 8.0 | 15.0 | 0.00 | 0.00 | 0.00 | 29 | 1016.5 |
| 20260901192549 | 96 | 210 | 8.0 | 17.0 | 0.00 | 0.00 | 0.00 | 29 | 1016.6 |
| 20260901192048 | 96 | 165 | 10.0 | 17.0 | 0.00 | 0.00 | 0.00 | 28 | 1016.6 |
| 20260901191604 | 95 | 205 | 7.0 | 18.0 | 0.00 | 0.00 | 0.00 | 30 | 1016.5 |
| 20260901191047 | 95 | 283 | 4.0 | 18.0 | 0.00 | 0.00 | 0.00 | 29 | 1016.5 |
| 20260901190548 | 96 | 210 | 10.0 | 15.0 | 0.00 | 0.00 | 0.00 | 28 | 1016.6 |
| 20260901190105 | 95 | 207 | 4.0 | 14.0 | 0.00 | 0.00 | 0.00 | 29 | 1016.6 |
| 20260901185548 | 95 | 218 | 8.0 | 17.0 | 0.00 | 0.00 | 0.00 | 27 | 1016.6 |
| 20260901185050 | 95 | 223 | 8.0 | 17.0 | 0.00 | 0.00 | 0.00 | 27 | 1016.6 |
| 20260901184605 | 96 | 201 | 12.0 | 20.0 | 0.00 | 0.00 | 0.00 | 27 | 1016.8 |
| 20260901184046 | 96 | 167 | 11.0 | 20.0 | 0.00 | 0.00 | 0.00 | 26 | 1016.8 |
| 20260901183546 | 96 | 194 | 12.0 | 20.0 | 0.00 | 0.00 | 0.00 | 27 | 1016.8 |
| 20260901183121 | 96 | 245 | 12.0 | 16.0 | 0.00 | 0.00 | 0.00 | 30 | 1016.9 |
| 20260901182546 | 95 | 153 | 10.0 | 19.0 | 0.00 | 0.00 | 0.00 | 30 | 1016.9 |
| 20260901182051 | 95 | 223 | 11.0 | 19.0 | 0.00 | 0.00 | 0.00 | 30 | 1017.1 |
| 20260901181605 | 95 | 205 | 11.0 | 19.0 | 0.00 | 0.00 | 0.00 | 31 | 1017.3 |
| 20260901181046 | 95 | 226 | 12.0 | 19.0 | 0.00 | 0.00 | 0.00 | 31 | 1017.3 |
| 20260901180546 | 95 | 208 | 12.0 | 17.0 | 0.00 | 0.00 | 0.00 | 30 | 1017.3 |
| 20260901180108 | 95 | 209 | 11.0 | 17.0 | 0.00 | 0.00 | 0.00 | 33 | 1017.3 |
| 20260901175546 | 94 | 226 | 11.0 | 16.0 | 0.00 | 0.00 | 0.00 | 35 | 1017.4 |
| 20260901175046 | 93 | 198 | 8.0 | 15.0 | 0.00 | 0.00 | 0.00 | 35 | 1017.5 |
| 20260901174559 | 93 | 149 | 9.0 | 16.0 | 0.00 | 0.00 | 0.00 | 35 | 1017.6 |
| 20260901174048 | 93 | 239 | 9.0 | 16.0 | 0.00 | 0.00 | 0.00 | 36 | 1017.6 |
| 20260901173549 | 93 | 227 | 10.0 | 16.0 | 0.00 | 0.00 | 0.00 | 36 | 1017.6 |
| 20260901173151 | 93 | 208 | 11.0 | 16.0 | 0.00 | 0.00 | 0.00 | 36 | 1017.7 |
| 20260901172548 | 92 | 217 | 8.0 | 15.0 | 0.00 | 0.00 | 0.00 | 37 | 1017.8 |
| 20260901172049 | 92 | 227 | 10.0 | 15.0 | 0.00 | 0.00 | 0.00 | 37 | 1017.9 |
| 20260901171606 | 91 | 233 | 8.0 | 15.0 | 0.00 | 0.00 | 0.00 | 38 | 1017.8 |
| 20260901171049 | 91 | 222 | 10.0 | 15.0 | 0.00 | 0.00 | 0.00 | 38 | 1017.9 |
| 20260901170546 | 91 | 224 | 10.0 | 17.0 | 0.00 | 0.00 | 0.00 | 38 | 1018.0 |
| 20260901170108 | 91 | 237 | 9.0 | 17.0 | 0.00 | 0.00 | 0.00 | 38 | 1018.1 |
| 20260901165547 | 91 | 250 | 11.0 | 15.0 | 0.00 | 0.00 | 0.00 | 38 | 1018.2 |
| 20260901165047 | 90 | 229 | 11.0 | 16.0 | 0.00 | 0.00 | 0.00 | 39 | 1018.1 |
| 20260901164606 | 89 | 250 | 11.0 | 16.0 | 0.00 | 0.00 | 0.00 | 39 | 1018.0 |
| 20260901164046 | 89 | 255 | 10.0 | 16.0 | 0.00 | 0.00 | 0.00 | 39 | 1018.2 |
| 20260901163546 | 89 | 210 | 10.0 | 17.0 | 0.00 | 0.00 | 0.00 | 40 | 1018.2 |
| 20260901163119 | 89 | 193 | 11.0 | 17.0 | 0.00 | 0.00 | 0.00 | 40 | 1018.2 |
| 20260901162548 | 89 | 235 | 10.0 | 18.0 | 0.00 | 0.00 | 0.00 | 40 | 1018.2 |
| 20260901162047 | 88 | 231 | 10.0 | 18.0 | 0.00 | 0.00 | 0.00 | 40 | 1018.2 |
| 20260901161609 | 88 | 241 | 12.0 | 18.0 | 0.00 | 0.00 | 0.00 | 41 | 1018.2 |
| 20260901161046 | 88 | 235 | 12.0 | 18.0 | 0.00 | 0.00 | 0.00 | 41 | 1018.2 |
| 20260901160546 | 88 | 213 | 12.0 | 18.0 | 0.00 | 0.00 | 0.00 | 41 | 1018.2 |
| 20260901160107 | 88 | 232 | 11.0 | 17.0 | 0.00 | 0.00 | 0.00 | 41 | 1018.3 |
| 20260901155549 | 88 | 212 | 10.0 | 17.0 | 0.00 | 0.00 | 0.00 | 41 | 1018.1 |
| 20260901155047 | 87 | 198 | 12.0 | 19.0 | 0.00 | 0.00 | 0.00 | 41 | 1018.1 |
| 20260901154606 | 87 | 247 | 14.0 | 19.0 | 0.00 | 0.00 | 0.00 | 41 | 1018.1 |
| 20260901154051 | 87 | 204 | 12.0 | 17.0 | 0.00 | 0.00 | 0.00 | 41 | 1018.1 |
| 20260901153546 | 87 | 214 | 12.0 | 17.0 | 0.00 | 0.00 | 0.00 | 41 | 1018.1 |
| 20260901153103 | 87 | 228 | 11.0 | 19.0 | 0.00 | 0.00 | 0.00 | 41 | 1018.0 |
| 20260901152547 | 86 | 211 | 10.0 | 19.0 | 0.00 | 0.00 | 0.00 | 43 | 1018.1 |
| 20260901152048 | 86 | 238 | 8.0 | 19.0 | 0.00 | 0.00 | 0.00 | 42 | 1018.2 |
| 20260901151610 | 86 | 0 | 10.0 | 16.0 | 0.00 | 0.00 | 0.00 | 42 | 1018.1 |
| 20260901151048 | 85 | 232 | 13.0 | 16.0 | 0.00 | 0.00 | 0.00 | 42 | 1018.2 |
| 20260901150547 | 86 | 214 | 12.0 | 17.0 | 0.00 | 0.00 | 0.00 | 42 | 1018.2 |
| 20260901150107 | 85 | 228 | 9.0 | 17.0 | 0.00 | 0.00 | 0.00 | 43 | 1018.3 |
| 20260901145547 | 85 | 193 | 10.0 | 15.0 | 0.00 | 0.00 | 0.00 | 43 | 1018.1 |
| 20260901145048 | 85 | 189 | 9.0 | 13.0 | 0.00 | 0.00 | 0.00 | 43 | 1018.1 |
| 20260901144604 | 84 | 212 | 10.0 | 15.0 | 0.00 | 0.00 | 0.00 | 44 | 1018.1 |
| 20260901144049 | 84 | 217 | 10.0 | 15.0 | 0.00 | 0.00 | 0.00 | 44 | 1018.1 |
| 20260901143546 | 83 | 188 | 11.0 | 14.0 | 0.00 | 0.00 | 0.00 | 45 | 1018.0 |
| 20260901143108 | 82 | 191 | 9.0 | 14.0 | 0.00 | 0.00 | 0.00 | 46 | 1018.0 |
| 20260901142546 | 81 | 210 | 8.0 | 14.0 | 0.00 | 0.00 | 0.00 | 48 | 1018.2 |
| 20260901142049 | 81 | 160 | 10.0 | 14.0 | 0.00 | 0.00 | 0.00 | 50 | 1018.2 |
| 20260901141617 | 80 | 165 | 10.0 | 13.0 | 0.00 | 0.00 | 0.00 | 50 | 1018.3 |
| 20260901141049 | 80 | 169 | 8.0 | 12.0 | 0.00 | 0.00 | 0.00 | 50 | 1018.3 |
| 20260901140546 | 79 | 207 | 7.0 | 14.0 | 0.00 | 0.00 | 0.00 | 51 | 1018.3 |
| 20260901140059 | 79 | 195 | 8.0 | 14.0 | 0.00 | 0.00 | 0.00 | 51 | 1018.3 |
| 20260901135547 | 79 | 193 | 9.0 | 14.0 | 0.00 | 0.00 | 0.00 | 52 | 1018.3 |
| 20260901135047 | 78 | 167 | 7.0 | 11.0 | 0.00 | 0.00 | 0.00 | 54 | 1018.3 |
| 20260901134555 | 76 | 172 | 8.0 | 11.0 | 0.00 | 0.00 | 0.00 | 56 | 1018.3 |
| 20260901134049 | 75 | 165 | 6.0 | 8.0 | 0.00 | 0.00 | 0.00 | 58 | 1018.3 |
| 20260901133549 | 74 | 162 | 4.0 | 7.0 | 0.00 | 0.00 | 0.00 | 60 | 1018.3 |
| 20260901133106 | 74 | 165 | 5.0 | 8.0 | 0.00 | 0.00 | 0.00 | 61 | 1018.3 |
| 20260901132547 | 73 | 156 | 5.0 | 8.0 | 0.00 | 0.00 | 0.00 | 63 | 1018.4 |
| 20260901132047 | 73 | 160 | 6.0 | 8.0 | 0.00 | 0.00 | 0.00 | 64 | 1018.3 |
| 20260901131601 | 72 | 140 | 6.0 | 8.0 | 0.00 | 0.00 | 0.00 | 66 | 1018.3 |
| 20260901131050 | 70 | 140 | 5.0 | 8.0 | 0.00 | 0.00 | 0.00 | 68 | 1018.3 |
| 20260901130549 | 69 | 145 | 5.0 | 7.0 | 0.00 | 0.00 | 0.00 | 70 | 1018.2 |
| 20260901130110 | 68 | 166 | 5.0 | 8.0 | 0.00 | 0.00 | 0.00 | 71 | 1018.2 |
| 20260901125546 | 67 | 159 | 5.0 | 8.0 | 0.00 | 0.00 | 0.00 | 73 | 1018.1 |
| 20260901125047 | 67 | 151 | 5.0 | 7.0 | 0.00 | 0.00 | 0.00 | 74 | 1018.1 |
| 20260901124605 | 66 | 146 | 5.0 | 6.0 | 0.00 | 0.00 | 0.00 | 74 | 1018.1 |
| 20260901124048 | 66 | 155 | 3.0 | 4.0 | 0.00 | 0.00 | 0.00 | 74 | 1018.1 |
| 20260901123549 | 66 | 136 | 2.0 | 3.0 | 0.00 | 0.00 | 0.00 | 73 | 1018.1 |
| 20260901123106 | 67 | 137 | 2.0 | 3.0 | 0.00 | 0.00 | 0.00 | 72 | 1018.0 |
| 20260901122547 | 67 | 145 | 2.0 | 3.0 | 0.00 | 0.00 | 0.00 | 72 | 1018.0 |
| 20260901122050 | 67 | 152 | 2.0 | 3.0 | 0.00 | 0.00 | 0.00 | 73 | 1017.9 |
| 20260901121606 | 67 | 174 | 1.0 | 3.0 | 0.00 | 0.00 | 0.00 | 73 | 1017.9 |
| 20260901121046 | 67 | 179 | 1.0 | 3.0 | 0.00 | 0.00 | 0.00 | 73 | 1017.8 |
| 20260901120546 | 67 | 195 | 1.0 | 3.0 | 0.00 | 0.00 | 0.00 | 73 | 1017.9 |
| 20260901120108 | 67 | 207 | 2.0 | 3.0 | 0.00 | 0.00 | 0.00 | 74 | 1017.8 |
| 20260901115546 | 66 | 214 | 0.0 | 1.0 | 0.00 | 0.01 | 0.00 | 74 | 1018.0 |
| 20260901115047 | 66 | 0 | 0.0 | 1.0 | 0.00 | 0.01 | 0.00 | 74 | 1017.9 |
| 20260901114605 | 66 | 0 | 0.0 | 1.0 | 0.00 | 0.01 | 0.00 | 74 | 1018.0 |
| 20260901114049 | 66 | 0 | 0.0 | 3.0 | 0.00 | 0.01 | 0.00 | 75 | 1017.9 |
| 20260901113547 | 66 | 109 | 1.0 | 3.0 | 0.00 | 0.01 | 0.00 | 75 | 1017.9 |
| 20260901113106 | 66 | 119 | 3.0 | 3.0 | 0.00 | 0.01 | 0.00 | 76 | 1017.9 |
| 20260901112546 | 65 | 127 | 2.0 | 2.0 | 0.00 | 0.01 | 0.00 | 76 | 1017.9 |
| 20260901112048 | 65 | 119 | 1.0 | 1.0 | 0.00 | 0.01 | 0.00 | 75 | 1017.8 |
| 20260901111607 | 66 | 0 | 0.0 | 3.0 | 0.00 | 0.01 | 0.00 | 73 | 1018.0 |
| 20260901111047 | 66 | 0 | 1.0 | 3.0 | 0.00 | 0.01 | 0.00 | 73 | 1018.0 |
| 20260901110546 | 67 | 146 | 2.0 | 3.0 | 0.00 | 0.01 | 0.00 | 72 | 1017.8 |
| 20260901105547 | 67 | 191 | 2.0 | 3.0 | 0.00 | 0.01 | 0.00 | 71 | 1017.9 |
| 20260901105049 | 68 | 154 | 3.0 | 3.0 | 0.00 | 0.01 | 0.00 | 71 | 1017.9 |
| 20260901104600 | 68 | 174 | 1.0 | 2.0 | 0.00 | 0.01 | 0.00 | 72 | 1017.9 |
| 20260901104049 | 68 | 0 | 0.0 | 0.0 | 0.00 | 0.01 | 0.00 | 72 | 1018.0 |
| 20260901103547 | 69 | 0 | 0.0 | 3.0 | 0.00 | 0.01 | 0.00 | 71 | 1017.9 |
| 20260901103105 | 69 | 0 | 0.0 | 3.0 | 0.00 | 0.01 | 0.00 | 71 | 1018.0 |
| 20260901102546 | 69 | 287 | 2.0 | 11.0 | 0.00 | 0.01 | 0.00 | 71 | 1018.0 |
| 20260901102046 | 69 | 209 | 1.0 | 13.0 | 0.00 | 0.01 | 0.00 | 70 | 1017.8 |
| 20260901101609 | 69 | 286 | 8.0 | 13.0 | 0.00 | 0.01 | 0.00 | 69 | 1018.2 |
| 20260901101050 | 70 | 270 | 1.0 | 3.0 | 0.00 | 0.01 | 0.00 | 65 | 1017.9 |
| 20260901100549 | 70 | 190 | 2.0 | 3.0 | 0.00 | 0.01 | 0.00 | 65 | 1017.8 |
| 20260901100111 | 70 | 161 | 2.0 | 4.0 | 0.00 | 0.01 | 0.00 | 65 | 1017.8 |
| 20260901095549 | 71 | 155 | 3.0 | 4.0 | 0.00 | 0.01 | 0.00 | 65 | 1017.7 |
| 20260901095048 | 71 | 198 | 2.0 | 4.0 | 0.00 | 0.01 | 0.00 | 65 | 1017.8 |
| 20260901094603 | 70 | 241 | 1.0 | 3.0 | 0.00 | 0.01 | 0.00 | 65 | 1017.8 |
| 20260901094047 | 71 | 277 | 2.0 | 4.0 | 0.00 | 0.01 | 0.00 | 64 | 1017.8 |
| 20260901093548 | 72 | 307 | 3.0 | 4.0 | 0.00 | 0.01 | 0.00 | 62 | 1017.8 |
| 20260901093100 | 73 | 283 | 0.0 | 6.0 | 0.00 | 0.01 | 0.00 | 60 | 1017.9 |
| 20260901092548 | 73 | 233 | 4.0 | 7.0 | 0.00 | 0.01 | 0.00 | 60 | 1017.8 |
| 20260901092049 | 73 | 207 | 4.0 | 7.0 | 0.00 | 0.01 | 0.00 | 60 | 1017.7 |
| 20260901091555 | 73 | 195 | 5.0 | 6.0 | 0.00 | 0.01 | 0.00 | 60 | 1017.6 |
| 20260901091048 | 73 | 203 | 4.0 | 6.0 | 0.00 | 0.01 | 0.00 | 60 | 1017.6 |
| 20260901090550 | 73 | 204 | 4.0 | 7.0 | 0.00 | 0.01 | 0.00 | 60 | 1017.5 |
| 20260901090105 | 73 | 191 | 5.0 | 8.0 | 0.00 | 0.01 | 0.00 | 60 | 1017.5 |
| 20260901085548 | 73 | 162 | 6.0 | 8.0 | 0.00 | 0.01 | 0.00 | 60 | 1017.5 |
| 20260901085051 | 73 | 182 | 6.0 | 8.0 | 0.00 | 0.01 | 0.00 | 60 | 1017.5 |
| 20260901084623 | 74 | 183 | 6.0 | 8.0 | 0.00 | 0.01 | 0.00 | 59 | 1017.5 |
| 20260901084127 | 74 | 174 | 6.0 | 8.0 | 0.00 | 0.01 | 0.00 | 59 | 1017.4 |
| 20260901083624 | 74 | 168 | 5.0 | 8.0 | 0.00 | 0.01 | 0.00 | 58 | 1017.4 |
| 20260901083133 | 75 | 196 | 5.0 | 9.0 | 0.00 | 0.01 | 0.00 | 57 | 1017.4 |